STARLINK-2427 (47837 NORAD) Tracking and Keplerian Element Data

This shows tracking and keplerian element data for the satellite.

Feedback or suggestion? Click here.




ElementValue
Catalog47837
NameSTARLINK-2427
Epoch Orbit196
Epoch Day173.91668981
Epoch Year2021
RAAN36.576
Inclination53.0529
Eccentricity0.0001452
Argument of Perigee63.0988
Mean Anonmoly157.999
Mean Motion15.30260556
Decay Rate-0.01068629
L11 47837U 21018BC 21173.91668981 -.01068629 00000-0 -39273-1 0 9992
L22 47837 53.0529 36.5760 0001452 63.0988 157.9990 15.30260556 1967

Live tracking and technical data element details for STARLINK-2427 (NORAD 47837). STARLINK-2427 can be tracked NOW for your location showing map with azimuth and elevation plus other details from your city location.

Track the satellite on the map from your city or location and see movement details for azimuth, elevation, latitude, longitude, range, height, and movement on the map or in text.







IsCatalogInMostPopularTable: catalog: 47837, numindb: 44
Update: records affected: 1



GetName: 47837 STARLINK-2427

Hit Count: updated at: Thu, 24 Jun 2021 02:23:56 GMT